Current Version              Previous Version:    01  02  03  04  05  06  07  08  09  10  11  12  13  14  15  16  17  18  19  20  21  22  23  24  25  26  27  28  29  30  
   31  32  33  34  35  36  37  38  39  40  41  42  43  44  45  46  47  48  49  50  51  52  53  54  55  56  57  58  59  60  

[Printable]
197
ASUS44 KLUB 280510
RWRTX
WEST TEXAS WEATHER ROUNDUP
NATIONAL WEATHER SERVICE LUBBOCK TX
1200 AM CDT THU AUG 28 2014

NOTE: "FAIR" INDICATES FEW OR NO CLOUDS BELOW 12,000 FEET WITH NO
SIGNIFICANT WEATHER AND/OR OBSTRUCTIONS TO VISIBILITY.

TXZ004-006>008-010-012-014-016-OKZ002-280600-
TEXAS PANHANDLE/OKLAHOMA PANHANDLE

CITY           SKY/WX    TMP DP  RH WIND       PRES   REMARKS
AMARILLO       CLEAR     69  66  90 SE12      30.10F
BORGER         CLEAR     75  63  66 S15G23    30.05F
CANADIAN       MOCLDY    74  70  87 CALM      30.01F
DALHART        CLEAR     71  62  73 S14       30.08F
DUMAS          CLEAR     70  64  80 S14       30.07F
GUYMON         CLEAR     71  64  78 S15G23    30.00F
HEREFORD       PTCLDY    71  63  76 SE8       30.12S
PAMPA          PTCLDY    70  61  71 S10       30.08F
PERRYTON       PTCLDY    70  65  84 S10       30.03S
$$

TXZ026-029-035-045-048-280600-
SOUTHERN PANHANDLE/SOUTH PLAINS/ROLLING PLAINS

CITY           SKY/WX    TMP DP  RH WIND       PRES   REMARKS
CHILDRESS      CLOUDY    81  65  58 S6        30.04R
SEMINOLE       MOCLDY    80  56  44 E3        30.10S
LUBBOCK        CLOUDY    75  64  68 E8        30.09F
PLAINVIEW      CLOUDY    75  66  72 SE7       30.09F
SNYDER         CLOUDY    85  60  43 SE9       30.05S
$$

TXZ052-054-060>062-072-078-127-140-154-169-280600-
PERMIAN BASIN/CONCHO VALLEY/BIG COUNTRY/EDWARDS PLATEAU

CITY           SKY/WX    TMP DP  RH WIND       PRES   REMARKS
ABILENE        CLEAR     83  61  47 SE13      30.03S
BIG SPRING     PTCLDY    85  58  39 SE9       30.06S
BRADY          CLEAR     79  61  53 E5        30.03S
BROWNWOOD      CLOUDY    81  59  47 SE7       30.02S
JUNCTION       CLEAR     80  63  55 CALM      30.03R
MIDLAND        PTCLDY    83  61  47 SE9       30.05S
ODESSA         PTCLDY    85  60  42 SE13      30.06S
SAN ANGELO     CLEAR     82  61  48 SE6       30.02S
SONORA         CLEAR     81  61  50 SE5       30.08S
SWEETWATER     PTCLDY    80  62  54 SE7       30.08S
WINK           CLOUDY    87  55  33 NE6       30.01F
$$

TXZ055-058-074-075-080-082-280600-
FAR WEST/SOUTHWEST MOUNTAINS/TRANS PECOS

CITY           SKY/WX    TMP DP  RH WIND       PRES   REMARKS
ALPINE         MOCLDY    72  55  55 SW6       30.22S
DRYDEN           N/A     89  59  36 SE9       30.00F
EL PASO        PTCLDY    76  57  51 CALM      30.12F
FORT STOCKTON  PTCLDY    84  56  38 S7        30.06S
GUADALUPE PASS PTCLDY    72  56  57 W10       30.25F
MARFA          MOCLDY    68  57  68 N6        30.21S
PECOS          MOCLDY    84  57  39 NW6       30.02S
PRESIDIO       FAIR      86  55  34 MISG      30.02S
$$

TXZ014-016-019-021>030-083-280600
TEXAS TECH WEST TEXAS MESONET/TEXAS PANHANDLE/NORTHERN SOUTH PLAINS

CITY           SKY/WX    TMP DP  RH WIND       PRES   REMARKS
ABERNATHY 5ENE   N/A     72  65  78 E6        30.11F
AMARILLO 9NNE    N/A     71  66  84 S13       30.07F
AMARILLO 7SSE    N/A     70  65  83 SE10      30.11F
AMHERST 1NE      N/A     72  63  72 SE6       30.11F
BOOTLEG 11WNW    N/A     68  56  65 S9        30.16S
CANADIAN 6E      N/A     72  70  93 SE7       30.00F
CAPROCK CYN SP   N/A     75  65  69 S7        30.08S
CHILDRESS 2NNE   N/A     79  66  64 S8        30.02S
CLARENDON 2WSW   N/A     77  63  61 SE8       30.07F
CLAUDE 12SW      N/A     72  65  78 S7        30.10S
DIMMITT 2NE      N/A     70  58  66 SE8       30.12S
FLOYDADA 2NNE    N/A     71  67  88 SE6       30.10S
FRIONA 2NE       N/A     69  58  68 S6        30.13F
GOODLETT 3W      N/A     85  59  41 SE13      30.00R
HART 3N          N/A     70  62  75 SE6       30.11F
HEREFORD 2NW     N/A     71  58  63 S8        30.11F
MCLEAN 1E        N/A     72  67  84 S6        30.06S
MEMPHIS 1NE      N/A     78  69  74 E2        30.04R
MULESHOE 2SSW    N/A     72  60  66 SE8       30.11S
OLTON 6S         N/A     72  62  71 SE5       30.11S
PALO DURO SP     N/A     71  64  79 SE7       30.12S
PAMPA 2E         N/A     69  64  83 S9        30.08F
PLAINVIEW 1S     N/A     73  64  73 SE6       30.10F
SILVERTON 7ESE   N/A     74  63  69 SE5       30.10F
TULIA 2ENE       N/A     73  62  67 S9        30.10S
TURKEY 2WSW      N/A     74  66  76 SE13      30.05F
UMBARGER 3NNE    N/A     73  59  61 S9        30.11F
$$

TXZ033>036-039>041-045>048-280600
TEXAS TECH WEST TEXAS MESONET/SOUTH PLAINS

CITY           SKY/WX    TMP DP  RH WIND       PRES   REMARKS
AIKEN 3WSW       N/A     73  64  74 SE6       30.11F
ANDREWS 2NE      N/A     83  57  41 S7        30.08S
ANTON 6SSW       N/A     72  65  77 SE9       30.09F
BROWNFIELD 2S    N/A     79  58  48 E6        30.09F
DENVR CTY 7WNW   N/A     74  62  65 E6        30.11S
GAIL 2ESE        N/A     83  56  39 SE8       30.03F
LAMESA 2SE       N/A     81  60  48 SE2       30.07F
LEVELLAND 4S     N/A     71  64  77 E5        30.10F
LUBBOCK 3WNW     N/A     76  63  64 E3        30.10S
MORTON 1ENE      N/A     74  62  64 SE7       30.12S
ODONNELL 1N      N/A     78  60  52 NE3       30.08S
PLAINS 3N        N/A     76  61  59 E7        30.12S
RALLS 1SE        N/A     76  62  62 E6        30.11S
REESE CENTER     N/A     75  62  64 E7        30.10F
SEAGRAVES 1SW    N/A     79  58  48 E3        30.09F
SEMINOLE 2NNE    N/A     79  56  45 NE5       30.09S
SLATON 2NE       N/A     73  66  78 NE2       30.10S
SNYDER 3E        N/A     83  59  43 SE10      30.04S
SUNDOWN 8SW      N/A     73  62  68 NE5       30.11S
TAHOKA 3NNE      N/A     76  62  59 NE2       30.09S
WOLFFORTH 6SSW   N/A     76  63  63 E7        30.10F
$$

TXZ031-032-036>038-042>044-280600-
TEXAS TECH WEST TEXAS MESONET/ROLLING PLAINS

CITY           SKY/WX    TMP DP  RH WIND       PRES   REMARKS
ASPERMONT 3NE    N/A     85  60  42 SE8       30.01S
FLUVANNA 3WNW    N/A     80  63  57 SE9       30.05F
GRAHAM 5SSW      N/A     80  61  52 NE5       30.07S
GUTHRIE 10WSW    N/A     84  63  48 S2        30.02S
HASKELL 1NW      N/A     84  58  40 SE7       30.00S
JAYTON 1SSE      N/A     80  63  55 SE6       30.03R
KNOX CITY 3NW    N/A     85  57  38 SE10      30.00R
LK A HENRY 1NW   N/A     84  62  47 NE6       30.03S
NORTHFIELD 1S    N/A     76  69  79 SW5       30.05S
ODELL 4ENE       N/A     84  62  48 SE10      30.00S
PADUCAH 10SW   LGT RAIN  82  63  52 W6        30.03R
POST 1NE         N/A     79  61  55 NW1       30.06S
RRING SPRGS 3N   N/A     75  67  77 NW6       30.07F
SEYMOUR 3NW      N/A     84  60  42 SE10      29.99S
SPUR 1W          N/A     79  64  59 NW7       30.04S
WEINERT 2NNE     N/A     84  61  45 SE10      30.01R
WHITE RVR 6NE    N/A     77  63  63 E3        30.06F
$$

TXZ052-054-060>062-072-078-127-140-154-169-280600-
TEXAS TECH WEST TEXAS MESONET/PERMIAN BASIN/
CONCHO VALLEY/BIG COUNTRY/EDWARDS PLATEAU

CITY           SKY/WX    TMP DP  RH WIND       PRES   REMARKS
JUNCTION 1SSW    N/A     75  65  69 CALM      30.03S
MERTZON 3NNE     N/A     82  61  48 SE6       30.04F
SAN ANGELO 7NW   N/A     81  60  49 E7        30.03S
STRLNG CT 4WSW   N/A     82  61  47 E7        30.04S
ST LAWRNCE 5SW   N/A     81  57  44 SE8       30.05F
SWEETWATR 11SW   N/A     81  63  54 SE13      30.06S
WALL 1E          N/A     76  63  62 SE6       30.03S
$$

TXZ055-058-074-075-080-082-280600-
TEXAS TECH WEST TEXAS MESONET/FAR WEST/SOUTHWEST MOUNTAINS/TRANS PECOS

CITY           SKY/WX    TMP DP  RH WIND       PRES   REMARKS
PRSMN GAP BBNP   N/A     84  57  39 NE6       30.03S
GUADLPE MTN NP   N/A     70  54  56 W7        30.25F
$$